Weather History for Granada, Spain

Change the Weather History Date:

Sunday, March 30, 2014

  Actual Average Record
Temperature  
Mean Temperature 50 °F -  
Max Temperature 64 °F 68 °F 80 °F (2006)
Min Temperature 36 °F 43 °F 30 °F (2007)
Degree Days  
Heating Degree Days 15    
Moisture  
Dew Point 41 °F    
Average Humidity 75    
Maximum Humidity 100    
Minimum Humidity 27    
Precipitation  
Precipitation 0.00 in - - ()
Sea Level Pressure  
Sea Level Pressure 29.95 in    
Wind  
Wind Speed 3 mph ()    
Max Wind Speed 13 mph    
Max Gust Speed 15 mph    
Visibility 7.1 miles    
Events Fog    
Averages and records for this station are not official NWS values.
T = Trace of Precipitation, MM = Missing Value Source: Averaged Metar Reports

Daily Weather History Graph

Daily Weather History Graph

Search for Another Location

Airport:

Trip Planner

Search our weather history database for the weather conditions in past years. The results will help you decide how hot, cold, wet, or windy it might be!

Date:

Astronomy

Mar. 30, 2014 Rise Set
Actual Time 8:04 AM CEST 8:35 PM CEST
Civil Twilight 7:37 AM CEST 9:01 PM CEST
Nautical Twilight 7:07 AM CEST 9:32 PM CEST
Astronomical Twilight 6:35 AM CEST 10:04 PM CEST
Moon 7:40 AM CEST (3/30) 8:32 PM CEST (3/30)
Length of Visible Light 13h 24m
Length of Day
12h 31m
Waning Crescent, 0% of the Moon is Illuminated
Mar 30
Waning Crescent
Mar 30
New
Apr 7
First Quarter
Apr 15
Full
Apr 22
Last Quarter

Hourly Weather History & Observations

Time (CEST) Temp. Windchill Dew Point Humidity Pressure Visibility Wind Dir Wind Speed Gust Speed Precip Events Conditions
12:00 AM 42 °F - 41 °F 95% 29.91 in 4 mi Calm Calm - -   Mist
1:00 AM 41 °F - 40 °F 96% 29.92 in 4 mi Calm Calm - -   Mist
3:00 AM 41 °F - 41 °F 100% 29.92 in 9 mi South 1.2 mph - -   Mist
4:00 AM 42 °F - 41 °F 96% 29.91 in 6 mi Calm Calm - -  
5:00 AM 42 °F - 41 °F 95% 29.90 in 7 mi Calm Calm - -   Clear
6:00 AM 39 °F - 38 °F 97% 29.92 in 4 mi South 4.6 mph - -   Mist
6:00 AM 39.2 °F 37.0 °F 39.2 °F 100% 29.86 in 6.2 mi South 3.5 mph - N/A   Scattered Clouds
6:14 AM 39.2 °F - 39.2 °F 100% 29.86 in 0.3 mi Variable 2.3 mph - N/A Fog Patches of Fog
6:30 AM 39.2 °F - 39.2 °F 100% 29.86 in 0.2 mi Calm Calm - N/A Fog Patches of Fog
6:35 AM 39.2 °F - 39.2 °F 100% 29.86 in 1.9 mi Variable 2.3 mph - N/A Fog Patches of Fog
7:00 AM 37.4 °F - 37.4 °F 100% 29.86 in 2.5 mi Variable 1.2 mph - N/A   Partly Cloudy
7:30 AM 35.6 °F - 35.6 °F 100% 29.89 in 1.2 mi Calm Calm - N/A Fog Patches of Fog
8:00 AM 37 °F - 37 °F 100% 29.96 in 0 mi SE 1.2 mph - - Fog Patches of Fog
8:00 AM 37.4 °F - 37.4 °F 100% 29.89 in 0.2 mi Calm Calm - N/A Fog Patches of Fog
8:30 AM 37.4 °F 34.9 °F 37.4 °F 100% 29.89 in 0.2 mi ESE 3.5 mph - N/A Fog Patches of Fog
9:00 AM 39 °F - 39 °F 99% 29.98 in 0 mi ESE 3.5 mph - - Fog Patches of Fog
9:00 AM 39.2 °F - 39.2 °F 100% 29.92 in 0.2 mi Variable 2.3 mph - N/A Fog Patches of Fog
9:30 AM 39.2 °F - 39.2 °F 100% 29.92 in 0.2 mi Variable 2.3 mph - N/A Fog Patches of Fog
10:00 AM 39.2 °F - 39.2 °F 100% 29.92 in 0.2 mi Calm Calm - N/A Fog Patches of Fog
10:30 AM 41.0 °F - 41.0 °F 100% 29.95 in 0.2 mi Calm Calm - N/A Fog Patches of Fog
11:00 AM 43 °F - 42 °F 92% 30.00 in 0 mi Calm Calm - - Fog Patches of Fog
11:00 AM 41.0 °F - 41.0 °F 100% 29.95 in 0.3 mi Calm Calm - N/A Fog Patches of Fog
11:30 AM 42.8 °F - 42.8 °F 100% 29.98 in 1.2 mi Variable 1.2 mph - N/A Fog Patches of Fog
12:00 PM 50 °F - 45 °F 75% 29.98 in 5 mi West 1.2 mph - - Fog Fog
12:00 PM 44.6 °F - 44.6 °F 100% 29.98 in 3.1 mi Calm Calm - N/A   Scattered Clouds
12:30 PM 48.2 °F - 48.2 °F 100% 29.98 in 6.2 mi Variable 1.2 mph - N/A   Scattered Clouds
1:00 PM 55 °F - 45 °F 59% 29.96 in 16 mi West 8.1 mph - -   Clear
1:00 PM 51.8 °F - 44.6 °F 76% 29.98 in 6.2 mi West 6.9 mph - N/A   Scattered Clouds
1:30 PM 55.4 °F - 46.4 °F 72% 29.95 in 6.2 mi Variable 2.3 mph - N/A   Scattered Clouds
2:00 PM 59 °F - 44 °F 46% 29.93 in 19 mi WNW 3.5 mph - -   Mostly Cloudy
2:00 PM 55.4 °F - 42.8 °F 63% 29.95 in 6.2 mi Variable 4.6 mph - N/A   Scattered Clouds
2:30 PM 55.4 °F - 44.6 °F 67% 29.95 in 6.2 mi Variable 2.3 mph - N/A   Scattered Clouds
3:00 PM 59 °F - 43 °F 43% 29.92 in 19 mi WNW 5.8 mph - -   Mostly Cloudy
3:00 PM 57.2 °F - 42.8 °F 59% 29.95 in 6.2 mi Variable 3.5 mph 15.0 mph N/A   Scattered Clouds
3:30 PM 59.0 °F - 41.0 °F 51% 29.95 in 6.2 mi WNW 5.8 mph - N/A   Scattered Clouds
4:00 PM 63 °F - 40 °F 32% 29.90 in 19 mi NW 6.9 mph - -  
4:00 PM 59.0 °F - 41.0 °F 51% 29.95 in 6.2 mi NW 5.8 mph - N/A   Scattered Clouds
4:30 PM 59.0 °F - 42.8 °F 55% 29.95 in 6.2 mi WNW 9.2 mph - N/A   Scattered Clouds
5:00 PM 59 °F - 40 °F 37% 29.92 in 19 mi West 5.8 mph - -   Mostly Cloudy
5:00 PM 59.0 °F - 39.2 °F 48% 29.95 in 6.2 mi WNW 4.6 mph - N/A   Mostly Cloudy
5:30 PM 59.0 °F - 37.4 °F 45% 29.95 in 6.2 mi WNW 5.8 mph - N/A   Mostly Cloudy
6:00 PM 63 °F - 41 °F 33% 29.91 in 19 mi West 10.4 mph - -  
6:00 PM 59.0 °F - 42.8 °F 55% 29.95 in 6.2 mi West 9.2 mph - N/A   Mostly Cloudy
6:30 PM 59.0 °F - 41.0 °F 51% 29.95 in 6.2 mi West 8.1 mph - N/A   Scattered Clouds
7:00 PM 61 °F - 36 °F 27% 29.92 in 19 mi West 8.1 mph - -  
7:00 PM 59.0 °F - 39.2 °F 48% 29.95 in 6.2 mi West 8.1 mph - N/A   Scattered Clouds
7:30 PM 57.2 °F - 39.2 °F 51% 29.95 in 6.2 mi West 12.7 mph - N/A   Partly Cloudy
8:00 PM 56 °F - 39 °F 41% 29.96 in 19 mi West 9.2 mph - -   Scattered Clouds
8:00 PM 55.4 °F - 41.0 °F 58% 29.98 in 6.2 mi West 9.2 mph - N/A   Partly Cloudy
8:30 PM 53.6 °F - 41.0 °F 62% 29.98 in 6.2 mi West 6.9 mph - N/A   Partly Cloudy
9:00 PM 51 °F - 41 °F 60% 29.99 in 19 mi WSW 4.6 mph - -  
9:00 PM 51.8 °F - 41.0 °F 67% 29.98 in 6.2 mi WSW 3.5 mph - N/A   Partly Cloudy
9:30 PM 51.8 °F - 42.8 °F 71% 30.01 in 6.2 mi SW 3.5 mph - N/A   Scattered Clouds
10:00 PM 52 °F - 42 °F 61% 30.01 in 19 mi SW 2.3 mph - -  
10:00 PM 51.8 °F - 42.8 °F 71% 30.01 in 6.2 mi Variable 2.3 mph - N/A   Scattered Clouds
10:30 PM 51.8 °F - 42.8 °F 71% 30.01 in 6.2 mi Variable 2.3 mph - N/A   Scattered Clouds
11:00 PM 49 °F - 43 °F 71% 30.04 in 19 mi SSW 1.2 mph - -   Partly Cloudy
11:00 PM 50.0 °F - 42.8 °F 76% 30.01 in 6.2 mi Calm Calm - N/A   Scattered Clouds
12:00 AM 46 °F - 41 °F 77% 30.07 in 19 mi SW 2.3 mph - -